FW2970 Weather Reports


time (UTC)temp
C
wind
direction
speed
KPH
gust
KPH
rain 1hr
cm
rain 24hr
cm
rain mn
cm
humidity
%
barometer
mb
20260504010010 10 285 9.7 14.5 0.00 1.19 0.00 62 1011.1
20260504004511 10 292 8.0 17.7 0.00 1.19 0.00 61 1011.0
20260504003006 10 288 9.7 22.5 0.00 1.30 0.00 52 1010.6
20260504001505 10 304 14.5 27.4 0.00 1.30 0.00 57 1010.3
20260504000004 11 301 12.9 25.7 0.00 1.30 0.00 51 1010.3
20260503234503 11 321 16.1 27.4 0.00 1.30 0.00 48 1010.0
20260503233059 11 293 14.5 29.0 0.00 1.35 0.00 49 1009.6
20260503231559 11 283 16.1 40.2 0.00 1.35 0.00 47 1009.3
20260503230056 11 335 17.7 37.0 0.00 1.35 0.00 55 1009.0
20260503224556 11 292 20.9 33.8 0.00 1.35 0.00 50 1008.7
20260503223054 11 300 22.5 38.6 0.00 1.35 0.00 47 1008.6
20260503221553 11 307 17.7 32.2 0.00 1.35 0.00 53 1008.3
20260503220106 11 314 17.7 32.2 0.00 1.35 0.00 51 1008.2
20260503214549 11 307 22.5 33.8 0.00 1.35 0.00 54 1008.0
20260503213049 11 313 19.3 30.6 0.00 1.35 0.00 54 1007.8
20260503211601 11 332 11.3 17.7 0.00 1.35 0.00 60 1007.5
20260503210044 11 299 11.3 22.5 0.00 1.35 0.00 56 1007.3
20260503204542 11 307 22.5 35.4 0.00 1.35 0.00 54 1007.2
20260503203041 11 311 20.9 29.0 0.00 1.35 0.00 52 1007.1
20260503201540 11 316 20.9 30.6 0.00 1.35 0.00 57 1007.0
20260503200039 11 307 22.5 35.4 0.00 1.35 0.00 58 1006.9
20260503194539 11 335 19.3 35.4 0.00 1.35 0.00 60 1006.8
20260503193047 11 337 24.1 38.6 0.00 1.35 0.00 57 1006.7
20260503191538 10 313 16.1 25.7 0.00 1.35 0.00 64 1006.8
20260503190037 10 340 16.1 29.0 0.00 1.35 0.00 63 1006.9
20260503184532 10 305 20.9 30.6 0.00 1.35 0.00 62 1007.0
20260503183037 10 320 29.0 43.5 0.00 1.35 0.00 65 1007.1
20260503181552 9 35 29.0 45.1 0.00 1.35 0.00 64 1007.1
20260503180026 9 343 37.0 51.5 0.00 1.35 0.00 66 1007.0
20260503174525 9 314 30.6 49.9 0.00 1.35 0.00 70 1006.9
20260503173041 9 323 29.0 41.8 0.00 1.35 0.00 74 1006.7
20260503171523 8 309 24.1 37.0 0.00 1.35 0.00 78 1006.7
20260503120108 7 333 19.3 25.7 0.00 1.35 1.35 82 1006.7
20260503081531 8 342 25.7 35.4 0.00 1.35 1.35 80 1007.5
20260503071531 8 329 24.1 33.8 0.10 1.35 1.35 87 1008.1
20260503054516 8 304 8.0 14.5 0.18 1.22 1.22 95 1009.3
20260503053011 8 300 8.0 14.5 0.13 1.17 1.17 96 1009.4
20260503051509 8 295 8.0 12.9 0.13 1.12 1.12 96 1009.7
20260503050007 8 288 4.8 9.7 0.13 1.09 1.09 96 1009.9
20260503044506 8 293 1.6 8.0 0.10 1.04 1.04 96 1010.0
20260503043005 8 262 6.4 9.7 0.13 1.04 1.04 96 1010.6
20260503041505 8 283 0.0 0.0 0.10 0.99 0.99 95 1010.4
20260503040006 8 270 0.0 0.0 0.13 0.97 0.97 95 1010.6
20260503034503 8 316 0.0 0.0 0.18 0.94 0.94 95 1010.5
20260503033001 8 316 0.0 3.2 0.20 0.91 0.91 95 1010.6
20260503031601 8 347 1.6 4.8 0.20 0.89 0.89 95 1010.7
20260503030106 8 49 0.0 0.0 0.23 0.84 0.84 95 1010.8
20260503024602 8 49 0.0 9.7 0.25 0.79 0.79 95 1010.8
20260503023101 8 2 1.6 6.4 0.30 0.71 0.71 95 1010.9
20260503021557 8 333 1.6 3.2 0.38 0.71 0.71 95 1011.1
20260503014601 8 142 3.2 4.8 0.41 0.56 0.56 95 1011.7
20260503013107 9 128 3.2 6.4 0.36 0.46 0.46 95 1011.8
20260503011555 9 140 0.0 1.6 0.28 0.36 0.36 95 1011.7